When you browse on this site, cookies collect data to enhance your experience and personalize the content and advertising you see.
Visit our Privacy Policy to learn more. By continuing to use the site, you agree to this use of cookies and data.
  • en Suisse
  • Liste des pays
  • À 7 jours
  • Température de l'eau
  • Carte météo
  • Widgets météo
  • user-avatar
    Se connecter

    Météo par heure à Zavalovo

    Ce jour, 26 Août, Lundi

    Heure Température Précipitation Vent Pression Humidité
    00:00 +13°C° 0 mm 2 m/s 758 mmHg 91%
    01:00 +13°C° 0 mm 2 m/s 758 mmHg 92%
    02:00 +12°C° 0 mm 2 m/s 758 mmHg 93%
    03:00 +12°C° 0 mm 1 m/s 758 mmHg 93%
    04:00 +12°C° 0 mm 1 m/s 758 mmHg 93%
    05:00 +12°C° 0 mm 1 m/s 758 mmHg 93%
    06:00 +13°C° 0 mm 1 m/s 758 mmHg 86%
    07:00 +15°C° 0 mm 1 m/s 759 mmHg 80%
    08:00 +16°C° 0 mm 0 m/s 759 mmHg 74%
    09:00 +19°C° 0 mm 1 m/s 758 mmHg 70%
    10:00 +21°C° 0 mm 1 m/s 758 mmHg 66%
    11:00 +22°C° 0 mm 1 m/s 758 mmHg 62%
    12:00 +22°C° 0 mm 1 m/s 758 mmHg 61%
    13:00 +22°C° 0 mm 1 m/s 757 mmHg 61%
    14:00 +21°C° 0 mm 2 m/s 757 mmHg 61%
    15:00 +21°C° 0 mm 2 m/s 757 mmHg 64%
    16:00 +21°C° 0 mm 2 m/s 756 mmHg 67%
    17:00 +21°C° 0 mm 2 m/s 756 mmHg 70%
    18:00 +19°C° 0 mm 2 m/s 755 mmHg 74%
    19:00 +18°C° 0 mm 2 m/s 755 mmHg 78%
    20:00 +16°C° 0 mm 2 m/s 755 mmHg 82%
    21:00 +16°C° 0 mm 2 m/s 755 mmHg 83%
    22:00 +14°C° 0 mm 3 m/s 754 mmHg 84%
    23:00 +14°C° 0 mm 3 m/s 754 mmHg 85%

    Demain, 27 Août, Mardi

    Heure Température Précipitation Vent Pression Humidité
    00:00 +14°C° 0 mm 3 m/s 754 mmHg 86%
    01:00 +14°C° 0 mm 3 m/s 753 mmHg 86%
    02:00 +14°C° 0 mm 3 m/s 753 mmHg 87%
    03:00 +14°C° 0 mm 3 m/s 753 mmHg 87%
    04:00 +14°C° 0 mm 4 m/s 752 mmHg 88%
    05:00 +14°C° 0 mm 4 m/s 752 mmHg 88%
    06:00 +15°C° 0 mm 4 m/s 752 mmHg 86%
    07:00 +17°C° 0 mm 4 m/s 752 mmHg 85%
    08:00 +19°C° 0 mm 5 m/s 752 mmHg 83%
    09:00 +19°C° 0.4 mm 5 m/s 751 mmHg 81%
    10:00 +20°C° 0.4 mm 5 m/s 751 mmHg 78%
    11:00 +21°C° 0.4 mm 5 m/s 751 mmHg 75%
    12:00 +21°C° 0.1 mm 5 m/s 751 mmHg 70%
    13:00 +22°C° 0.1 mm 6 m/s 751 mmHg 65%
    14:00 +23°C° 0.1 mm 6 m/s 751 mmHg 61%
    15:00 +22°C° 0 mm 5 m/s 751 mmHg 63%
    16:00 +21°C° 0 mm 4 m/s 751 mmHg 65%
    17:00 +20°C° 0 mm 4 m/s 751 mmHg 67%
    18:00 +19°C° 0 mm 4 m/s 752 mmHg 70%
    19:00 +17°C° 0 mm 3 m/s 752 mmHg 73%
    20:00 +16°C° 0 mm 3 m/s 752 mmHg 75%
    21:00 +14°C° 0 mm 3 m/s 753 mmHg 80%
    22:00 +13°C° 0 mm 3 m/s 753 mmHg 84%
    23:00 +12°C° 0 mm 3 m/s 753 mmHg 89%

    Après-demain, 28 Août, Mercredi

    Heure Température Précipitation Vent Pression Humidité
    00:00 +12°C° 0 mm 2 m/s 753 mmHg 90%
    01:00 +12°C° 0 mm 2 m/s 754 mmHg 92%
    02:00 +10°C° 0 mm 2 m/s 754 mmHg 93%
    03:00 +10°C° 0 mm 3 m/s 754 mmHg 93%
    04:00 +9°C° 0 mm 3 m/s 754 mmHg 93%
    05:00 +9°C° 0 mm 3 m/s 755 mmHg 93%
    06:00 +10°C° 0 mm 4 m/s 755 mmHg 85%
    07:00 +11°C° 0 mm 4 m/s 755 mmHg 77%
    08:00 +13°C° 0 mm 4 m/s 755 mmHg 69%
    09:00 +14°C° 0 mm 4 m/s 755 mmHg 66%
    10:00 +15°C° 0 mm 5 m/s 755 mmHg 63%
    11:00 +16°C° 0 mm 5 m/s 755 mmHg 59%
    12:00 +16°C° 0 mm 5 m/s 755 mmHg 56%
    13:00 +16°C° 0 mm 5 m/s 755 mmHg 53%
    14:00 +17°C° 0 mm 5 m/s 755 mmHg 50%
    15:00 +17°C° 0 mm 4 m/s 755 mmHg 53%
    16:00 +16°C° 0 mm 3 m/s 755 mmHg 57%
    17:00 +16°C° 0 mm 3 m/s 756 mmHg 61%
    18:00 +14°C° 0 mm 2 m/s 756 mmHg 64%
    19:00 +13°C° 0 mm 2 m/s 756 mmHg 66%
    20:00 +10°C° 0 mm 2 m/s 757 mmHg 69%
    21:00 +9°C° 0 mm 2 m/s 757 mmHg 72%
    22:00 +9°C° 0 mm 2 m/s 757 mmHg 74%
    23:00 +8°C° 0 mm 2 m/s 757 mmHg 76%

    29 Août, Jeudi

    Heure Température Précipitation Vent Pression Humidité
    00:00 +8°C° 0 mm 2 m/s 757 mmHg 78%
    01:00 +7°C° 0 mm 2 m/s 757 mmHg 80%
    02:00 +8°C° 0 mm 1 m/s 758 mmHg 82%
    03:00 +8°C° 0 mm 1 m/s 758 mmHg 83%
    04:00 +8°C° 0 mm 1 m/s 758 mmHg 85%
    05:00 +8°C° 0 mm 1 m/s 758 mmHg 86%
    06:00 +9°C° 0 mm 1 m/s 758 mmHg 80%
    07:00 +11°C° 0 mm 1 m/s 758 mmHg 73%
    08:00 +13°C° 0 mm 1 m/s 758 mmHg 67%
    09:00 +14°C° 0 mm 2 m/s 758 mmHg 62%
    10:00 +16°C° 0 mm 2 m/s 757 mmHg 57%
    11:00 +17°C° 0 mm 2 m/s 757 mmHg 51%
    12:00 +18°C° 0 mm 2 m/s 757 mmHg 52%
    13:00 +19°C° 0 mm 1 m/s 757 mmHg 53%
    14:00 +20°C° 0 mm 1 m/s 756 mmHg 53%
    15:00 +20°C° 0 mm 1 m/s 756 mmHg 58%
    16:00 +20°C° 0 mm 1 m/s 756 mmHg 63%
    17:00 +20°C° 0 mm 1 m/s 756 mmHg 68%
    18:00 +18°C° 0 mm 1 m/s 755 mmHg 72%
    19:00 +15°C° 0 mm 1 m/s 755 mmHg 76%
    20:00 +14°C° 0 mm 1 m/s 755 mmHg 80%
    21:00 +13°C° 0 mm 2 m/s 755 mmHg 82%
    22:00 +13°C° 0 mm 2 m/s 755 mmHg 83%
    23:00 +12°C° 0 mm 2 m/s 755 mmHg 85%

    30 Août, Vendredi

    Heure Température Précipitation Vent Pression Humidité
    00:00 +12°C° 0 mm 2 m/s 755 mmHg 86%
    01:00 +12°C° 0 mm 2 m/s 755 mmHg 88%
    02:00 +10°C° 0 mm 2 m/s 754 mmHg 89%
    03:00 +10°C° 0 mm 2 m/s 754 mmHg 90%
    04:00 +10°C° 0 mm 3 m/s 754 mmHg 90%
    05:00 +10°C° 0 mm 3 m/s 754 mmHg 91%
    06:00 +12°C° 0 mm 3 m/s 754 mmHg 85%
    07:00 +13°C° 0 mm 3 m/s 754 mmHg 79%
    08:00 +15°C° 0 mm 4 m/s 754 mmHg 73%
    09:00 +18°C° 0 mm 4 m/s 754 mmHg 69%
    10:00 +19°C° 0 mm 4 m/s 754 mmHg 64%
    11:00 +21°C° 0 mm 4 m/s 754 mmHg 59%
    12:00 +22°C° 0 mm 4 m/s 753 mmHg 58%
    13:00 +22°C° 0 mm 3 m/s 753 mmHg 57%
    14:00 +24°C° 0 mm 3 m/s 753 mmHg 55%
    15:00 +22°C° 0 mm 3 m/s 753 mmHg 60%
    16:00 +21°C° 0 mm 3 m/s 753 mmHg 65%
    17:00 +21°C° 0 mm 2 m/s 753 mmHg 70%
    18:00 +19°C° 0 mm 2 m/s 753 mmHg 77%
    19:00 +17°C° 0 mm 2 m/s 753 mmHg 84%
    20:00 +15°C° 0 mm 1 m/s 753 mmHg 91%
    21:00 +14°C° 0 mm 1 m/s 753 mmHg 92%
    22:00 +14°C° 0 mm 1 m/s 753 mmHg 93%
    23:00 +14°C° 0 mm 1 m/s 753 mmHg 94%

    31 Août, Samedi

    Heure Température Précipitation Vent Pression Humidité
    00:00 +13°C° 0 mm 1 m/s 753 mmHg 94%
    01:00 +13°C° 0 mm 1 m/s 753 mmHg 95%
    02:00 +13°C° 0 mm 1 m/s 753 mmHg 95%
    03:00 +13°C° 0 mm 1 m/s 753 mmHg 95%
    04:00 +12°C° 0 mm 1 m/s 753 mmHg 95%
    05:00 +12°C° 0 mm 1 m/s 753 mmHg 95%
    06:00 +14°C° 0 mm 1 m/s 753 mmHg 88%
    07:00 +16°C° 0 mm 2 m/s 753 mmHg 82%
    08:00 +18°C° 0 mm 2 m/s 753 mmHg 75%
    09:00 +19°C° 0 mm 2 m/s 753 mmHg 69%
    10:00 +20°C° 0 mm 2 m/s 753 mmHg 64%
    11:00 +23°C° 0 mm 2 m/s 753 mmHg 58%
    12:00 +22°C° 0 mm 3 m/s 752 mmHg 57%
    13:00 +24°C° 0 mm 3 m/s 752 mmHg 56%
    14:00 +24°C° 0 mm 3 m/s 752 mmHg 55%
    15:00 +22°C° 0 mm 3 m/s 752 mmHg 59%
    16:00 +21°C° 0 mm 2 m/s 751 mmHg 64%
    17:00 +21°C° 0 mm 2 m/s 751 mmHg 68%
    18:00 +19°C° 0 mm 2 m/s 751 mmHg 71%
    19:00 +17°C° 0 mm 2 m/s 751 mmHg 74%
    20:00 +16°C° 0 mm 2 m/s 751 mmHg 77%
    21:00 +15°C° 0 mm 2 m/s 751 mmHg 79%
    22:00 +14°C° 0 mm 2 m/s 751 mmHg 81%
    23:00 +14°C° 0 mm 2 m/s 751 mmHg 83%
    Voir plus